{"data":{"norad_id":55355,"intl_designator":"2023-013AA","name":"STARLINK-5647","alt_names":[],"object_type":"PAYLOAD","status":"ACTIVE","operator":null,"country":"US","launch_date":"2023-01-26","launch_site_code":"AFETR","launch_vehicle":null,"mission":null,"orbit_class":"UNKNOWN","rcs_meters":null,"size_class":null,"mass_kg":null,"dimensions":null,"purposes":["comms"],"wikipedia_slug":null,"has_3d_model":false,"image_url":null,"decayed_at":null,"tle_current":{"epoch":"2026-05-24T22:15:55.581696Z","epoch_age_seconds":81366,"freshness":"FRESH","line1":"1 55355U 23013AA  26144.92772664  .00000349  00000+0  22208-4 0  9995","line2":"2 55355  43.0031 232.7812 0001486 276.5302  83.5380 15.27577278183320","mean_motion":15.27577278,"eccentricity":0.0001486,"inclination_deg":43.0031,"raan_deg":232.7812,"arg_perigee_deg":276.5302,"mean_anomaly_deg":83.538,"bstar":2.2208e-5,"rev_number":18332,"period_min":94.266916688191,"perigee_km":482.03767323393,"apogee_km":484.07682016405,"semimajor_km":6861.194246699,"source":"CELESTRAK","updated_at":"2026-05-25T13:38:17.764798Z"}}}